�������l�o���
Date,Time,MP-1(��Sv/h),MP-2(��Sv/h),MP-3(��Sv/h),MP-4(��Sv/h),MP-5(��Sv/h),MP-6(��Sv/h),MP-7(��Sv/h),MP-8(��Sv/h),����,����(m/s),���J
2021/10/09,00:00,0.587,0.878,0.560,1.066,0.758,0.358,0.621,0.584,�k,3.7,��
2021/10/09,00:10,0.585,0.878,0.561,1.064,0.758,0.356,0.621,0.582,�k,4.3,��
2021/10/09,00:20,0.586,0.878,0.560,1.066,0.760,0.357,0.622,0.584,�k,3.6,��
2021/10/09,00:30,0.588,0.876,0.562,1.065,0.756,0.357,0.621,0.582,�k,3.7,��
2021/10/09,00:40,0.587,0.879,0.560,1.064,0.758,0.356,0.621,0.584,�k,3.6,��
2021/10/09,00:50,0.585,0.876,0.561,1.065,0.758,0.357,0.619,0.585,�k,3.6,��
2021/10/09,01:00,0.585,0.878,0.559,1.065,0.758,0.356,0.621,0.584,�k,3.7,��
2021/10/09,01:10,0.587,0.878,0.560,1.066,0.757,0.358,0.622,0.582,�k,3.8,��
2021/10/09,01:20,0.585,0.880,0.560,1.066,0.758,0.357,0.621,0.582,�k,3.6,��
2021/10/09,01:30,0.586,0.877,0.562,1.062,0.758,0.356,0.621,0.583,�k,3.7,��
2021/10/09,01:40,0.586,0.876,0.559,1.065,0.757,0.357,0.620,0.584,�k,3.8,��
2021/10/09,01:50,0.586,0.875,0.562,1.066,0.759,0.358,0.621,0.582,�k,4.4,�L
2021/10/09,02:00,0.585,0.878,0.560,1.064,0.757,0.359,0.622,0.584,�k,4.4,�L
2021/10/09,02:10,0.586,0.876,0.561,1.065,0.758,0.357,0.620,0.584,�k,4.6,��
2021/10/09,02:20,0.586,0.876,0.560,1.066,0.758,0.359,0.621,0.583,�k,4.6,�L
2021/10/09,02:30,0.586,0.878,0.561,1.065,0.758,0.358,0.620,0.582,�k,5.0,��
2021/10/09,02:40,0.585,0.877,0.561,1.064,0.760,0.357,0.621,0.584,�k,5.1,��
2021/10/09,02:50,0.586,0.879,0.562,1.066,0.758,0.357,0.620,0.583,�k,5.2,��
2021/10/09,03:00,0.586,0.877,0.560,1.067,0.758,0.356,0.621,0.582,�k,5.1,��
2021/10/09,03:10,0.585,0.876,0.561,1.065,0.758,0.357,0.621,0.583,�k,6.1,��
2021/10/09,03:20,0.586,0.878,0.560,1.067,0.760,0.357,0.621,0.583,�k,5.2,��
2021/10/09,03:30,0.584,0.877,0.560,1.064,0.759,0.356,0.621,0.584,�k,5.2,�L
2021/10/09,03:40,0.585,0.877,0.561,1.064,0.758,0.356,0.622,0.582,�k,5.9,�L
2021/10/09,03:50,0.585,0.875,0.560,1.065,0.758,0.357,0.619,0.584,�k,5.6,��
2021/10/09,04:00,0.584,0.877,0.561,1.066,0.758,0.357,0.622,0.583,�k,4.2,��
2021/10/09,04:10,0.587,0.877,0.560,1.065,0.757,0.356,0.620,0.583,�k,3.8,��
2021/10/09,04:20,0.585,0.876,0.560,1.066,0.758,0.357,0.622,0.582,�k,4.3,��
2021/10/09,04:30,0.585,0.875,0.560,1.066,0.757,0.356,0.621,0.582,�k,3.7,��
2021/10/09,04:40,0.586,0.878,0.561,1.066,0.758,0.357,0.621,0.582,�k,3.0,��
2021/10/09,04:50,0.587,0.878,0.561,1.065,0.760,0.356,0.621,0.583,�k�k��,3.0,��
2021/10/09,05:00,0.586,0.878,0.561,1.067,0.760,0.357,0.621,0.583,�k�k��,3.8,��
2021/10/09,05:10,0.586,0.877,0.563,1.065,0.758,0.358,0.620,0.583,�k�k��,3.5,��
2021/10/09,05:20,0.586,0.877,0.561,1.067,0.760,0.356,0.623,0.584,�k�k��,3.9,��
2021/10/09,05:30,0.585,0.878,0.561,1.067,0.758,0.356,0.622,0.583,�k�k��,4.4,��
2021/10/09,05:40,0.587,0.876,0.560,1.065,0.757,0.357,0.619,0.583,�k�k��,3.5,��
2021/10/09,05:50,0.586,0.879,0.562,1.065,0.759,0.357,0.621,0.583,�k�k��,4.4,��
2021/10/09,06:00,0.586,0.880,0.558,1.064,0.757,0.357,0.621,0.584,�k�k��,4.7,��
2021/10/09,06:10,0.587,0.878,0.560,1.066,0.757,0.357,0.621,0.583,�k��,4.0,��
2021/10/09,06:20,0.588,0.878,0.560,1.066,0.759,0.357,0.622,0.583,�k�k��,3.7,��
2021/10/09,06:30,0.588,0.879,0.561,1.065,0.757,0.357,0.619,0.584,�k�k��,4.7,�L
2021/10/09,06:40,0.588,0.879,0.560,1.065,0.759,0.357,0.621,0.584,�k�k��,4.6,��
2021/10/09,06:50,0.587,0.878,0.561,1.064,0.757,0.357,0.621,0.584,�k�k��,5.3,�L
2021/10/09,07:00,0.587,0.877,0.561,1.068,0.759,0.357,0.621,0.582,�k�k��,5.8,�L
2021/10/09,07:10,0.587,0.877,0.561,1.067,0.757,0.357,0.620,0.585,�k�k��,5.6,�L
2021/10/09,07:20,0.589,0.878,0.561,1.064,0.759,0.357,0.620,0.582,�k�k��,5.4,�L
2021/10/09,07:30,0.588,0.878,0.562,1.065,0.757,0.356,0.620,0.583,�k�k��,5.8,�L
2021/10/09,07:40,0.586,0.877,0.557,1.066,0.761,0.357,0.620,0.583,�k�k��,5.9,�L
2021/10/09,07:50,0.585,0.877,0.561,1.067,0.759,0.357,0.621,0.584,�k�k��,4.2,�L
2021/10/09,08:00,0.586,0.871,0.560,1.062,0.757,0.357,0.620,0.583,�k,6.5,�L
2021/10/09,08:10,0.585,0.867,0.558,1.062,0.758,0.358,0.620,0.582,�k�k��,7.6,�L
2021/10/09,08:20,0.582,0.865,0.556,1.063,0.751,0.356,0.620,0.581,�k��,9.1,�L
2021/10/09,08:30,0.585,0.867,0.554,1.064,0.752,0.355,0.619,0.581,�k��,7.5,�L
2021/10/09,08:40,0.582,0.864,0.554,1.059,0.752,0.355,0.618,0.581,���k��,8.5,�L
2021/10/09,08:50,0.584,0.867,0.554,1.060,0.752,0.356,0.620,0.580,�k��,9.5,�L
2021/10/09,09:00,0.583,0.864,0.554,1.060,0.751,0.355,0.619,0.581,���k��,8.9,�L
2021/10/09,09:10,0.583,0.865,0.554,1.060,0.751,0.355,0.620,0.581,���k��,9.4,�L
2021/10/09,09:20,0.584,0.866,0.555,1.060,0.750,0.355,0.619,0.581,�k��,7.7,�L
2021/10/09,09:30,0.582,0.864,0.554,1.061,0.750,0.354,0.620,0.580,�k��,7.7,��
2021/10/09,09:40,0.582,0.866,0.554,1.059,0.751,0.355,0.621,0.581,���k��,7.8,��
2021/10/09,09:50,0.581,0.865,0.554,1.060,0.752,0.354,0.619,0.581,�k��,8.8,��
2021/10/09,10:00,0.580,0.865,0.553,1.058,0.751,0.354,0.617,0.581,�k��,8.4,��
2021/10/09,10:10,0.583,0.867,0.553,1.061,0.752,0.354,0.620,0.581,�k��,8.6,��
2021/10/09,10:20,0.582,0.866,0.553,1.060,0.750,0.353,0.620,0.581,�k��,8.3,��
2021/10/09,10:30,0.583,0.866,0.552,1.061,0.752,0.355,0.619,0.581,���k��,8.2,��
2021/10/09,10:40,0.583,0.865,0.554,1.060,0.751,0.355,0.620,0.580,�k��,8.3,��
2021/10/09,10:50,0.582,0.867,0.555,1.062,0.752,0.356,0.619,0.581,�k��,9.0,��
2021/10/09,11:00,0.584,0.868,0.554,1.058,0.751,0.356,0.621,0.581,�k��,9.5,��
2021/10/09,11:10,0.583,0.867,0.554,1.063,0.751,0.354,0.621,0.582,���k��,9.3,��
2021/10/09,11:20,0.581,0.867,0.553,1.063,0.752,0.354,0.621,0.580,���k��,9.0,��
2021/10/09,11:30,0.583,0.866,0.554,1.060,0.752,0.357,0.621,0.582,�k��,8.1,��
2021/10/09,11:40,0.584,0.869,0.556,1.062,0.752,0.354,0.620,0.580,�k��,7.7,��
2021/10/09,11:50,0.584,0.867,0.552,1.062,0.752,0.355,0.618,0.581,�k��,8.1,��
2021/10/09,12:00,0.583,0.868,0.554,1.061,0.752,0.356,0.621,0.578,�k��,7.7,��
2021/10/09,12:10,0.581,0.867,0.555,1.062,0.752,0.355,0.620,0.582,�k��,7.8,��
2021/10/09,12:20,0.584,0.868,0.555,1.062,0.752,0.354,0.621,0.580,�k��,7.2,��
2021/10/09,12:30,0.583,0.869,0.556,1.062,0.752,0.356,0.623,0.582,�k��,6.7,��
2021/10/09,12:40,0.583,0.868,0.556,1.063,0.752,0.356,0.621,0.581,�k��,5.9,��
2021/10/09,12:50,0.583,0.870,0.556,1.061,0.754,0.355,0.620,0.581,�k��,4.5,��
2021/10/09,13:00,0.584,0.871,0.557,1.063,0.753,0.355,0.621,0.582,�k�k��,4.5,��
2021/10/09,13:10,0.582,0.871,0.554,1.061,0.752,0.355,0.620,0.581,�k��,4.5,��
2021/10/09,13:20,0.585,0.869,0.555,1.062,0.752,0.355,0.622,0.582,�k��,4.5,��
2021/10/09,13:30,0.583,0.871,0.556,1.061,0.755,0.355,0.622,0.582,�k��,4.4,��
2021/10/09,13:40,0.584,0.869,0.558,1.062,0.755,0.356,0.621,0.583,�k��,4.5,��
2021/10/09,13:50,0.583,0.870,0.557,1.062,0.752,0.355,0.622,0.582,�k��,4.7,�L
2021/10/09,14:00,0.585,0.870,0.557,1.062,0.754,0.355,0.620,0.581,�k��,5.2,�L
2021/10/09,14:10,0.586,0.871,0.556,1.063,0.753,0.355,0.622,0.581,�k��,4.1,�L
2021/10/09,14:20,0.585,0.869,0.557,1.065,0.755,0.355,0.622,0.583,�k��,4.0,�L
2021/10/09,14:30,0.585,0.872,0.558,1.063,0.755,0.355,0.621,0.582,�k�k��,3.9,�L
2021/10/09,14:40,0.584,0.870,0.559,1.063,0.755,0.355,0.622,0.582,�k�k��,4.0,�L
2021/10/09,14:50,0.585,0.870,0.557,1.065,0.755,0.358,0.622,0.580,�k�k��,4.4,�L
2021/10/09,15:00,0.585,0.868,0.559,1.065,0.755,0.358,0.620,0.580,�k�k��,4.0,�L
2021/10/09,15:10,0.585,0.867,0.557,1.060,0.752,0.359,0.621,0.580,�k�k��,2.3,�L
2021/10/09,15:20,0.586,0.867,0.558,1.064,0.751,0.359,0.621,0.581,�k�k��,2.5,�L
2021/10/09,15:30,0.586,0.865,0.557,1.060,0.750,0.357,0.620,0.581,�k,2.3,�L
2021/10/09,15:40,0.585,0.864,0.556,1.061,0.748,0.359,0.620,0.581,�k�k��,1.2,�L
2021/10/09,15:50,0.586,0.864,0.556,1.059,0.748,0.360,0.619,0.581,�k,1.7,�L
2021/10/09,16:00,0.586,0.864,0.555,1.058,0.746,0.356,0.618,0.581,�k,2.8,�L
2021/10/09,16:10,0.585,0.863,0.554,1.057,0.748,0.359,0.620,0.579,�k�k��,2.6,�L
2021/10/09,16:20,0.585,0.864,0.554,1.056,0.747,0.357,0.618,0.580,���k��,2.9,�L
2021/10/09,16:30,0.583,0.863,0.555,1.055,0.746,0.356,0.618,0.580,�k��,3.2,�L
2021/10/09,16:40,0.583,0.863,0.554,1.056,0.746,0.355,0.619,0.582,���k��,2.9,�L
2021/10/09,16:50,0.585,0.862,0.553,1.055,0.748,0.356,0.619,0.581,�k��,2.3,�L
2021/10/09,17:00,0.583,0.862,0.553,1.052,0.746,0.356,0.618,0.581,�k��,2.3,�L
2021/10/09,17:10,0.584,0.861,0.552,1.054,0.746,0.357,0.618,0.581,�k�k��,2.6,�L
2021/10/09,17:20,0.581,0.861,0.552,1.055,0.746,0.354,0.619,0.580,-,CALM,��
2021/10/09,17:30,0.583,0.862,0.553,1.051,0.745,0.355,0.617,0.580,�k,0.9,��
2021/10/09,17:40,0.583,0.861,0.551,1.054,0.744,0.354,0.620,0.580,�k,1.1,��
2021/10/09,17:50,0.583,0.863,0.552,1.053,0.744,0.353,0.618,0.580,�k�k��,1.2,��
2021/10/09,18:00,0.581,0.859,0.550,1.052,0.742,0.353,0.619,0.583,�k�k��,2.6,��
2021/10/09,18:10,0.582,0.862,0.551,1.054,0.743,0.353,0.617,0.581,�k,1.9,��
2021/10/09,18:20,0.582,0.863,0.548,1.053,0.741,0.353,0.618,0.581,�k�k��,2.0,��
2021/10/09,18:30,0.583,0.863,0.550,1.054,0.743,0.353,0.618,0.581,�k,2.2,��
2021/10/09,18:40,0.580,0.862,0.551,1.052,0.743,0.353,0.618,0.581,�k��,1.4,��
2021/10/09,18:50,0.581,0.861,0.551,1.052,0.743,0.352,0.617,0.581,�k�k��,1.1,�L
2021/10/09,19:00,0.581,0.862,0.548,1.053,0.742,0.351,0.617,0.582,�k�k��,2.6,��
2021/10/09,19:10,0.581,0.862,0.549,1.053,0.744,0.352,0.616,0.582,�k�k��,1.5,��
2021/10/09,19:20,0.581,0.860,0.550,1.051,0.743,0.352,0.616,0.580,�k��,1.4,��
2021/10/09,19:30,0.584,0.863,0.551,1.053,0.742,0.352,0.617,0.581,�k��,1.5,��
2021/10/09,19:40,0.582,0.860,0.551,1.053,0.743,0.354,0.615,0.581,�k�k��,1.2,��
2021/10/09,19:50,0.581,0.862,0.551,1.054,0.743,0.353,0.616,0.579,�k,1.1,��
2021/10/09,20:00,0.582,0.864,0.550,1.053,0.744,0.353,0.617,0.580,���k��,2.3,��
2021/10/09,20:10,0.581,0.863,0.550,1.052,0.742,0.354,0.616,0.582,��,3.4,��
2021/10/09,20:20,0.583,0.861,0.549,1.052,0.743,0.353,0.619,0.582,��,3.8,��
2021/10/09,20:30,0.581,0.861,0.551,1.054,0.746,0.354,0.616,0.582,��,2.6,��
2021/10/09,20:40,0.581,0.864,0.551,1.054,0.744,0.353,0.619,0.581,��,3.1,��
2021/10/09,20:50,0.582,0.860,0.551,1.054,0.744,0.353,0.617,0.581,��,2.6,��
2021/10/09,21:00,0.582,0.862,0.550,1.054,0.745,0.353,0.618,0.580,��,2.9,��
2021/10/09,21:10,0.581,0.861,0.551,1.053,0.744,0.353,0.618,0.580,��,2.5,��
2021/10/09,21:20,0.580,0.863,0.551,1.051,0.743,0.353,0.618,0.580,���쓌,3.0,��
2021/10/09,21:30,0.580,0.864,0.551,1.054,0.745,0.355,0.619,0.580,���쓌,1.9,��
2021/10/09,21:40,0.583,0.861,0.550,1.053,0.744,0.353,0.618,0.580,�쓌,1.2,��
2021/10/09,21:50,0.583,0.863,0.550,1.053,0.745,0.353,0.617,0.580,��쐼,1.4,��
2021/10/09,22:00,0.582,0.863,0.550,1.053,0.744,0.354,0.617,0.581,��쐼,1.1,��
2021/10/09,22:10,0.583,0.863,0.551,1.054,0.744,0.353,0.617,0.580,�쐼,1.4,��
2021/10/09,22:20,0.583,0.864,0.551,1.053,0.745,0.355,0.616,0.579,�쐼,1.4,��
2021/10/09,22:30,0.582,0.864,0.551,1.053,0.745,0.353,0.618,0.581,��쓌,0.6,��
2021/10/09,22:40,0.584,0.862,0.551,1.053,0.744,0.352,0.618,0.580,��쓌,1.2,��
2021/10/09,22:50,0.582,0.862,0.552,1.056,0.745,0.354,0.617,0.580,-,CALM,��
2021/10/09,23:00,0.582,0.862,0.551,1.054,0.745,0.354,0.617,0.582,��쐼,0.8,��
2021/10/09,23:10,0.583,0.862,0.551,1.052,0.745,0.352,0.619,0.581,-,CALM,��
2021/10/09,23:20,0.582,0.863,0.550,1.053,0.746,0.355,0.615,0.581,-,CALM,��
2021/10/09,23:30,0.582,0.861,0.551,1.054,0.746,0.353,0.618,0.582,-,CALM,��
2021/10/09,23:40,0.583,0.865,0.551,1.054,0.746,0.353,0.618,0.579,�쓌,0.9,��
2021/10/09,23:50,0.583,0.862,0.551,1.053,0.744,0.354,0.618,0.581,��쐼,0.9,��
